Location: Passo di Treia
(43.2833°N, 13.3333°E)
Time: 18:54:19
(UTC+00:00)

NOAA 11 - Pass Details

Date: 09 December 2019
Orbit: 833 x 850 km, 98.4° (Epoch: 28 January)

Event Time Altitude Azimuth Distance (km) Brightness Sun altitude
Rises 17:15:41 0° 147° (SSE) 3,378 7.2 -18.4°
Reaches altitude 10° 17:18:06 10° 142° (SE) 2,450 6.4 -18.8°
Maximum altitude 17:23:17 47° 70° (ENE) 1,104 4.3 -19.7°
Drops below altitude 10° 17:28:31 10° 358° (N) 2,476 6.5 -20.6°
Sets 17:30:58 0° 353° (N) 3,418 7.3 -21.1°
